STARLINK-37172, 68395

Orbit data source: Space-Track

STARLINK-37172, 68395 is a payload satellite owned by SpaceX/Seattle (US) in SSO that was launched on Thu, 26 Mar 2026 UTC via an FALCON 9 launch vehicle from the Air Force Western Test Range (AFWTR). Payload-class satellites include a variety of spacecraft equipped with specific instruments for various scientific and technological missions. These include communications satellites like Starlink; space stations such as the ISS; scientific satellites like the Hubble; Earth observation satellites from companies like Planet Labs, Umbra, and HawkEye 360; GPS; miniature CubeSats for education and research; and military/defense satellites.

Loading next visibility...
Identifier
68395, 2026-063R
Orbit
SSO
Country
Flag of USUS
Related business
Manufacturer
SpaceX/Seattle
Mission
Operational spacecraft
Bus & Motor
STARLINK V2MO, Unknown motor
Mass
575 kg wet, ~530 kg dry
Launch date (UTC)
2026-03-26 (1 month ago)
Launch vehicle
FALCON 9
Launch site
Air Force Western Test Range (AFWTR)
Object type
Payload
Rocket body
Debris
Shape & HBR
Unknown shape, 17.7 m
Radar Cross Section
RCS unknown

Expand to show TLE details & history
Last TLE update: 7 hours ago

TLE from 7 hours ago
0 STARLINK-37172
1 68395U 26063R   26119.14563331  .00377467  00000-0  24156-2 0  9997
2 68395  97.2850 261.4060 0002288  89.5219 270.6308 15.75244887  5582
Epoch: 2026-04-29T03:29Z
TLE epoch observation values (Epoch: 2026-04-29T03:29:42.717Z)
Latitude
-0.0001°
Longitude
-8.13277°
Altitude
347.086 km
Speed
7.701 km/s
True Right ascension
17h 25m 37s
True Declination
0° 00' 00"
Sunlit
Object was in full shadow at epoch
Visualization orbit readout
Latitude
Unknown
Longitude
Unknown
Altitude
Unknown
Speed
Unknown
Apparent Right ascension
Unknown
Apparent Declination
Unknown
Sunlit
N/A
Visualization observer readout
Local Sidereal Time
17:42:00
Azimuth
Unknown
Elevation
Unknown
Doppler factor
Unknown
Orbital elements
Apogee altitude
342.359 km
Perigee altitude
339.284 km
Semi-major axis
6,718.959 km
Eccentricity
0.00023
Inclination
97.285°
RAAN
261.406°
Arg. of periapsis
89.5219°
True anomaly
270.60458°
Mean anomaly
270.6308°
Eccentric anomaly
270.61769°
Mean motion
3.94085 °/min
Orbital period
91.35 mins
BSTAR
0.0024156
Loading maneuver chart data...
Computing Atmospheric mass density...
Loading historical data...
Loading historical data...
Loading historical data...
Loading historical data...
Loading historical data...
Loading historical data...
Loading historical data...

Documentation

Showing up to 5 results
|